Content
SEND FEEDBACK

Daily
Averages
Monthly
Summary
Canada

MONTREAL, QUEBEC


Home > North America > Canada > Quebec
Elevation: 35 meters     Latitude: 45 28N     Longitude: 073 45W

WEATHER
 
SELECT A DAY
Number of Records: 202,447;   Date Range: 1/1/95 - 11/22/14
 
SHARE

PRINT THIS DATA

[ ← Previous Day ]
WEATHER ALMANAC - 25 AUGUST, 2013
[ Next Day → ]
[ °F ]   °C
Weather ElementAverageHighLow
Temperature19.9 °C25 °C (3:00 pm)14 °C (3:00 am)
Dewpoint12.6 °C15 °C (8:00 am)10 °C (2:00 pm)
Humidity63.5 %88 % (5:00 am)29 % (2:00 pm)
Barometer1024 hPa1027.8 hPa (7:00 am)1018.6 hPa (10:00 pm)
Wind Speed13.4 km/h24.1 km/h (1:00 pm)
Weather ElementAverage
Visibility37.2 km
Wind DirectionSSW (218.9 °)

Weather ElementTotal
Precipitation---
Cooling Degree Days1.2 (Base 18.3)
Growing Degree Days9.5 (Base 10)
Averaged from 28 records on 25 August, 2013
WEATHER CONDITIONS BREAKOUT
WIND DIRECTION BREAKOUT
WEATHER BY HOUR - 25 AUGUST, 2013
[ °F ]   °C
Local TimeTemperatureDewpointHumidityBarometerVisibilityWind DirectionWind SpeedGust SpeedPrecipitationEventsConditions
1:00 AM16 °C11 °C72 %1026.4 hPa24.1 kmSW (230°)7.4 km/hPartly Cloudy
2:00 AM15 °C11.7 °C73 %1026.4 hPa24.1 kmWNW (290°)9.3 km/hClear
2:00 AM15 °C11 °C77 %1026.4 hPa24.1 kmWest (280°)9.3 km/hPartly Cloudy
3:00 AM14 °C11 °C82 %1026.8 hPa24.1 kmSW (230°)5.6 km/hClear
4:00 AM15 °C12 °C82 %1026.8 hPa24.1 kmSW (220°)11.1 km/hPartly Cloudy
5:00 AM14 °C12 °C88 %1027.1 hPa24.1 kmWSW (240°)13 km/hScattered Clouds
6:00 AM14 °C12 °C88 %1027.4 hPa48.3 kmWSW (250°)5.6 km/hMostly Cloudy
7:00 AM15 °C13 °C88 %1027.8 hPa48.3 kmWSW (240°)9.3 km/hPartly Cloudy
8:00 AM17.2 °C14.4 °C79 %1027.8 hPa45.1 kmWSW (240°)7.4 km/hScattered Clouds
8:00 AM17 °C15 °C88 %1027.4 hPa48.3 kmWSW (240°)9.3 km/hMostly Cloudy
9:00 AM19 °C14 °C73 %1027.8 hPa48.3 kmSW (220°)13 km/hOvercast
10:00 AM20 °C14 °C68 %1027.1 hPa48.3 kmSW (220°)18.5 km/hMostly Cloudy
11:00 AM22 °C11 °C50 %1026.1 hPa48.3 kmSSW (210°)16.7 km/hMostly Cloudy
12:00 PM23 °C13 °C53 %1025.7 hPa48.3 kmSW (230°)18.5 km/hScattered Clouds
1:00 PM24 °C13 °C50 %1025.1 hPa48.3 kmSSW (210°)24.1 km/hMostly Cloudy
2:00 PM24.4 °C10 °C29 %1024.4 hPa45.1 kmSW (220°)20.4 km/hScattered Clouds
2:00 PM24 °C10 °C41 %1024.4 hPa48.3 kmSW (220°)24.1 km/hMostly Cloudy
3:00 PM25 °C12 °C44 %1023.7 hPa48.3 kmSSW (200°)16.7 km/hMostly Cloudy
4:00 PM25 °C12 °C44 %1022.7 hPa48.3 kmSSW (210°)13 km/hOvercast
5:00 PM24 °C12 °C47 %1021.7 hPa48.3 kmSSW (200°)14.8 km/hOvercast
6:00 PM23 °C13 °C53 %1020.7 hPa48.3 kmSSW (200°)13 km/hOvercast
7:00 PM23 °C14 °C57 %1019.6 hPa48.3 kmSouth (180°)14.8 km/hOvercast
8:00 PM22.2 °C12.8 °C44 %1019.6 hPa24.1 kmSouth (170°)14.8 km/hOvercast
8:00 PM22 °C13 °C57 %1019.6 hPa24.1 kmSouth (170°)14.8 km/hOvercast
9:00 PM22 °C13 °C57 %1019 hPa24.1 kmSouth (170°)14.8 km/hOvercast
10:00 PM22 °C13 °C57 %1018.6 hPa24.1 kmSouth (190°)14.8 km/hOvercast
10:04 PM22 °C14 °C60 %1019 hPa19.3 kmSSW (210°)16.7 km/hRainLight Rain Showers
11:00 PM19 °C15 °C78 %1018.6 hPa16.1 kmWSW (240°)3.7 km/hRainLight Rain Showers
Hourly data recorded from CYUL, located 0 kilometers away from Montreal, Quebec







STORIES FROM OUR PARTNERS